EW4685 Weather Reports


time (UTC)temp
C
wind
direction
speed
KPH
gust
KPH
rain 1hr
cm
rain 24hr
cm
rain mn
cm
humidity
%
barometer
mb
20260510142708 10 50 0.0 0.0 0.00 0.03 0.00 89 1032.2
20260510142205 10 50 0.0 0.0 0.00 0.03 0.00 89 1032.1
20260510141706 10 50 0.0 0.0 0.00 0.03 0.00 89 1032.2
20260510141206 11 50 0.0 0.0 0.00 0.03 0.00 89 1032.2
20260510140704 11 50 0.0 0.0 0.00 0.03 0.00 89 1032.2
20260510140205 11 50 0.0 0.0 0.00 0.03 0.00 90 1032.1
20260510135701 11 50 0.0 0.0 0.00 0.03 0.03 90 1032.2
20260510135154 11 50 0.0 0.0 0.00 0.03 0.03 90 1032.1
20260510134648 11 50 0.0 0.0 0.00 0.03 0.03 90 1032.2
20260510134141 10 50 0.0 0.0 0.00 0.03 0.03 90 1032.2
20260510133636 10 50 0.0 0.0 0.00 0.03 0.03 90 1032.2
20260510133129 10 50 0.0 0.0 0.00 0.03 0.03 90 1032.3
20260510132622 10 50 0.0 0.0 0.00 0.03 0.03 90 1032.3
20260510132335 10 50 0.0 0.0 0.00 0.03 0.03 91 1032.3
20260510131613 10 50 0.0 0.0 0.00 0.03 0.03 91 1032.3
20260510131106 10 50 0.0 0.0 0.00 0.03 0.03 91 1032.3
20260510130834 10 50 0.0 0.0 0.00 0.03 0.03 91 1032.3
20260510130317 10 50 0.0 0.0 0.00 0.03 0.03 92 1032.3
20260510125549 10 50 0.0 0.0 0.00 0.03 0.03 92 1032.2
20260510125043 10 50 0.0 0.0 0.00 0.03 0.03 92 1032.3
20260510124536 10 50 0.0 0.0 0.00 0.03 0.03 93 1032.3
20260510124029 10 50 0.0 0.0 0.00 0.03 0.03 92 1032.2
20260510123523 10 50 0.0 0.0 0.00 0.03 0.03 92 1032.3
20260510123017 10 50 0.0 0.0 0.00 0.03 0.03 93 1032.3
20260510122512 9 50 0.0 0.0 0.00 0.03 0.03 93 1032.3
20260510122005 9 50 0.0 0.0 0.00 0.03 0.03 93 1032.3
20260510121501 9 50 0.0 0.0 0.00 0.03 0.03 92 1032.4
20260510120954 9 50 0.0 0.0 0.00 0.03 0.03 92 1032.4
20260510120447 9 50 0.0 0.0 0.00 0.03 0.03 92 1032.4
20260510115941 8 50 0.0 0.0 0.00 0.03 0.03 91 1032.3
20260510115657 9 50 0.0 0.0 0.00 0.03 0.03 91 1032.3
20260510115154 9 50 0.0 0.0 0.00 0.03 0.03 90 1032.3
20260510114422 9 50 0.0 0.0 0.00 0.03 0.03 90 1032.3
20260510113918 9 50 0.0 0.0 0.00 0.03 0.03 90 1032.3
20260510113636 10 50 0.0 0.0 0.00 0.03 0.03 90 1032.3
20260510112906 10 50 0.0 0.0 0.00 0.03 0.03 90 1032.2
20260510112623 10 50 0.0 0.0 0.00 0.03 0.03 90 1032.1
20260510111854 10 50 0.0 0.0 0.00 0.03 0.03 91 1032.1
20260510111350 10 50 0.0 0.0 0.00 0.03 0.03 90 1032.0
20260510110841 10 50 0.0 0.0 0.00 0.03 0.03 89 1031.9
20260510110336 10 50 0.0 0.0 0.00 0.03 0.03 89 1031.9
20260510110050 10 50 0.0 0.0 0.00 0.03 0.03 88 1031.9
20260510105329 10 50 0.0 0.0 0.00 0.03 0.03 88 1031.8
20260510105046 10 50 0.0 0.0 0.00 0.03 0.03 88 1031.8
20260510104329 10 50 0.0 0.0 0.00 0.03 0.03 87 1031.6
20260510103827 11 50 0.0 1.6 0.00 0.03 0.03 87 1031.6
20260510103325 11 50 0.0 1.6 0.00 0.03 0.03 88 1031.6
20260510103048 10 43 0.0 1.6 0.00 0.03 0.03 87 1031.6
20260510102325 11 40 0.0 0.0 0.00 0.03 0.03 86 1031.5
20260510101823 11 40 0.0 0.0 0.00 0.03 0.03 85 1031.5
20260510101324 11 40 0.0 0.0 0.00 0.03 0.03 84 1031.5
20260510100819 11 58 0.0 1.6 0.00 0.03 0.03 83 1031.5
20260510100801 11 58 0.0 1.6 0.00 0.03 0.03 85 1031.4
20260510095816 11 256 0.0 0.0 0.00 0.03 0.03 83 1031.3
20260510095313 11 256 0.0 0.0 0.00 0.03 0.03 82 1031.2
20260510094812 12 256 0.0 0.0 0.00 0.03 0.03 81 1031.2
20260510094534 12 256 0.0 0.0 0.00 0.03 0.03 80 1031.1
20260510093807 12 256 0.0 0.0 0.00 0.03 0.03 78 1031.1
20260510093308 13 256 0.0 3.2 0.00 0.03 0.03 78 1031.0
20260510092807 13 256 0.0 3.2 0.00 0.03 0.03 77 1031.0
20260510092527 13 301 0.0 3.2 0.00 0.03 0.03 77 1030.9
20260510091803 13 298 1.6 8.0 0.00 0.03 0.03 76 1030.8
20260510091249 13 41 1.6 9.7 0.00 0.03 0.03 76 1030.7
20260510090752 13 88 3.2 12.9 0.00 0.03 0.03 75 1030.6
20260510090247 13 92 3.2 12.9 0.00 0.03 0.03 75 1030.4
20260510085747 14 64 3.2 14.5 0.00 0.03 0.03 74 1030.4
20260510085508 14 102 4.8 14.5 0.00 0.03 0.03 74 1030.2
20260510085008 14 58 4.8 16.1 0.00 0.03 0.03 74 1030.1
20260510084509 14 40 3.2 16.1 0.00 0.03 0.03 73 1029.9
20260510084010 14 59 3.2 14.5 0.00 0.03 0.03 73 1029.8
20260510083247 14 48 3.2 14.5 0.00 0.03 0.03 73 1029.8
20260510082743 15 61 3.2 12.9 0.00 0.03 0.03 72 1029.7
20260510082243 15 61 3.2 14.5 0.00 0.03 0.03 71 1029.6
20260510081744 15 46 3.2 14.5 0.00 0.03 0.03 71 1029.5
20260510081505 15 67 3.2 12.9 0.00 0.03 0.03 70 1029.4
20260510081003 15 67 3.2 12.9 0.00 0.03 0.03 69 1029.3
20260510080243 15 29 3.2 12.9 0.00 0.03 0.03 68 1029.2
20260510075742 16 330 3.2 14.5 0.00 0.03 0.03 66 1029.1
20260510075243 16 85 3.2 17.7 0.00 0.03 0.03 64 1029.1
20260510074744 16 63 1.6 17.7 0.00 0.03 0.03 61 1029.0
20260510074503 16 36 0.0 8.0 0.00 0.03 0.03 60 1028.8
20260510073741 16 52 0.0 4.8 0.00 0.03 0.03 60 1028.7
20260510073458 16 48 0.0 6.4 0.00 0.03 0.03 59 1028.7
20260510072741 16 45 0.0 6.4 0.00 0.03 0.03 59 1028.6
20260510072237 16 46 1.6 6.4 0.00 0.03 0.03 59 1028.5
20260510071737 16 45 1.6 4.8 0.00 0.03 0.03 60 1028.4
20260510071237 16 24 0.0 3.2 0.00 0.03 0.03 63 1028.4
20260510070735 16 52 0.0 0.0 0.00 0.03 0.03 64 1028.2
20260510070238 16 52 0.0 0.0 0.00 0.03 0.03 63 1028.1
20260510065733 17 52 0.0 0.0 0.00 0.03 0.03 61 1028.1
20260510065233 17 52 0.0 0.0 0.00 0.03 0.03 59 1027.9
20260510064730 18 52 0.0 0.0 0.00 0.03 0.03 57 1027.9
20260510064228 18 52 0.0 0.0 0.00 0.03 0.03 55 1027.8
20260510063729 19 52 0.0 0.0 0.00 0.03 0.03 53 1027.8
20260510063229 20 52 0.0 0.0 0.00 0.03 0.03 50 1027.7
20260510062727 20 52 0.0 0.0 0.00 0.03 0.03 49 1027.7
20260510062228 21 52 0.0 0.0 0.00 0.03 0.03 50 1027.6
20260510061940 20 52 0.0 0.0 0.00 0.03 0.03 50 1027.6
20260510061225 20 52 0.0 1.6 0.00 0.03 0.03 50 1027.6
20260510060708 20 52 0.0 1.6 0.00 0.03 0.03 49 1027.5
20260510060202 20 58 0.0 0.0 0.00 0.03 0.03 50 1027.5
20260510055658 20 59 0.0 1.6 0.00 0.03 0.03 48 1027.5
20260510055410 20 70 0.0 1.6 0.00 0.03 0.03 48 1027.4
20260510054648 20 74 0.0 3.2 0.00 0.03 0.03 48 1027.5
20260510054401 21 100 0.0 3.2 0.00 0.03 0.03 47 1027.5
20260510053632 21 347 0.0 0.0 0.00 0.03 0.03 47 1027.5
20260510053125 20 347 0.0 0.0 0.00 0.03 0.03 47 1027.5
20260510052842 20 9 0.0 4.8 0.00 0.03 0.03 47 1027.4
20260510052116 20 42 0.0 4.8 0.00 0.03 0.03 49 1027.4
20260510051607 20 52 1.6 8.0 0.00 0.03 0.03 48 1027.4
20260510051327 20 82 1.6 8.0 0.00 0.03 0.03 48 1027.4
20260510050556 20 99 0.0 4.8 0.00 0.03 0.03 47 1027.3
20260510050050 20 81 0.0 4.8 0.00 0.03 0.03 46 1027.3
20260510045546 20 69 0.0 3.2 0.00 0.03 0.03 46 1027.3
20260510045039 20 51 0.0 1.6 0.00 0.03 0.03 46 1027.3
20260510044749 20 56 0.0 1.6 0.00 0.03 0.03 45 1027.3
20260510044026 20 323 0.0 1.6 0.00 0.03 0.03 44 1027.3
20260510043527 20 166 0.0 1.6 0.00 0.03 0.03 47 1027.3
20260510043015 20 97 0.0 0.0 0.00 0.03 0.03 45 1027.3
20260510042509 20 91 0.0 4.8 0.00 0.03 0.03 48 1027.3
20260510042003 20 91 0.0 6.4 0.00 0.03 0.03 46 1027.4
20260510041457 20 99 0.0 4.8 0.00 0.03 0.03 47 1027.4
20260510040949 20 45 0.0 4.8 0.00 0.03 0.03 45 1027.4
20260510040446 20 91 0.0 4.8 0.00 0.03 0.03 45 1027.3
20260510035939 20 307 0.0 3.2 0.00 0.03 0.03 47 1027.3
20260510035432 20 149 0.0 6.4 0.00 0.03 0.03 49 1027.4
20260510034927 20 114 0.0 6.4 0.00 0.03 0.03 47 1027.4
20260510034651 19 210 0.0 4.8 0.00 0.03 0.03 47 1027.4
20260510034148 20 219 0.0 3.2 0.00 0.03 0.03 47 1027.5
20260510033635 19 114 1.6 8.0 0.00 0.03 0.03 49 1027.5
20260510032904 19 85 1.6 8.0 0.00 0.03 0.03 47 1027.5
20260510032358 19 71 0.0 3.2 0.00 0.03 0.03 46 1027.5
20260510031852 19 97 0.0 3.2 0.00 0.03 0.03 46 1027.5
20260510031347 19 124 0.0 4.8 0.00 0.03 0.03 47 1027.5
20260510030838 19 210 0.0 4.8 0.00 0.03 0.03 45 1027.6
20260510030333 19 105 0.0 6.4 0.00 0.03 0.03 48 1027.6
20260510025827 18 83 1.6 8.0 0.00 0.03 0.03 47 1027.7
20260510025546 18 102 0.0 8.0 0.00 0.03 0.03 47 1027.8
20260510024817 19 149 0.0 1.6 0.00 0.03 0.03 49 1027.9
20260510024309 19 282 0.0 3.2 0.00 0.03 0.03 54 1027.9
20260510023808 18 211 0.0 3.2 0.00 0.03 0.03 53 1028.0
20260510023306 18 303 0.0 1.6 0.00 0.03 0.03 54 1028.0
20260510023034 18 270 0.0 3.2 0.00 0.03 0.03 54 1028.2
20260510022307 18 177 0.0 3.2 0.00 0.03 0.03 55 1028.2
20260510021804 18 275 0.0 4.8 0.00 0.03 0.03 56 1028.4
20260510021304 18 209 0.0 6.4 0.00 0.03 0.03 55 1028.5
20260510020801 18 354 0.0 6.4 0.00 0.03 0.03 54 1028.5
20260510020300 18 171 0.0 0.0 0.00 0.03 0.03 54 1028.6
20260510015807 18 62 0.0 0.0 0.00 0.03 0.03 55 1028.7
20260510015258 18 60 0.0 0.0 0.00 0.03 0.03 58 1028.7
20260510014757 17 60 0.0 0.0 0.00 0.03 0.03 57 1028.8
20260510014254 17 337 0.0 0.0 0.00 0.03 0.03 58 1028.8
20260510014240 17 337 0.0 3.2 0.00 0.03 0.03 59 1028.9
20260510013508 17 302 0.0 3.2 0.00 0.03 0.03 61 1029.0
20260510012751 17 308 0.0 0.0 0.00 0.03 0.03 61 1029.0
20260510012251 16 352 0.0 1.6 0.00 0.03 0.03 62 1029.0
20260510011748 16 197 0.0 3.2 0.00 0.03 0.03 64 1029.1
20260510011246 16 214 0.0 3.2 0.00 0.03 0.03 65 1029.1
20260510010746 15 214 0.0 1.6 0.00 0.03 0.03 66 1029.1
20260510010242 15 233 0.0 1.6 0.00 0.03 0.03 65 1029.1
20260510005749 15 235 0.0 1.6 0.00 0.03 0.03 66 1029.2
20260510005236 15 287 0.0 1.6 0.00 0.03 0.03 69 1029.2
20260510004731 15 220 0.0 1.6 0.00 0.03 0.03 67 1029.2
20260510004223 15 214 0.0 1.6 0.00 0.03 0.03 67 1029.2
20260510003720 15 268 0.0 0.0 0.00 0.03 0.03 70 1029.2
20260510003212 14 294 0.0 0.0 0.00 0.03 0.03 69 1029.3
20260510002929 13 242 0.0 0.0 0.00 0.03 0.03 70 1029.3
20260510002210 13 266 0.0 0.0 0.00 0.03 0.03 72 1029.3
20260510001708 13 300 0.0 0.0 0.00 0.03 0.03 72 1029.3
20260510001428 13 300 0.0 0.0 0.00 0.03 0.03 74 1029.3
20260510000708 12 300 0.0 0.0 0.00 0.03 0.03 75 1029.3
20260510000205 12 300 0.0 0.0 0.00 0.03 0.03 74 1029.3
20260510000200 12 300 0.0 0.0 0.00 0.03 0.03 75 1029.2
20260509235208 12 300 0.0 0.0 0.00 0.03 0.03 76 1029.2
20260509234925 11 270 0.0 0.0 0.00 0.03 0.03 78 1029.2
20260509234206 11 273 0.0 0.0 0.00 0.03 0.03 78 1029.2
20260509233709 11 294 0.0 0.0 0.00 0.03 0.03 81 1029.2
20260509233201 10 294 0.0 0.0 0.00 0.03 0.03 80 1029.2
20260509232704 10 303 0.0 0.0 0.00 0.03 0.03 82 1029.3
20260509232202 10 303 0.0 0.0 0.00 0.03 0.03 82 1029.2
20260509231702 10 294 0.0 0.0 0.00 0.03 0.03 84 1029.3
20260509231202 9 294 0.0 0.0 0.00 0.03 0.03 86 1029.3
20260509231137 8 294 0.0 0.0 0.00 0.03 0.03 89 1029.3
20260509230202 8 294 0.0 0.0 0.00 0.03 0.03 90 1029.3
20260509225702 8 294 0.0 0.0 0.00 0.03 0.03 91 1029.3
20260509225204 8 294 0.0 0.0 0.00 0.03 0.03 93 1029.3
20260509224702 7 294 0.0 0.0 0.00 0.03 0.03 93 1029.3
20260509224201 7 294 0.0 0.0 0.00 0.03 0.03 95 1029.3
20260509223701 7 294 0.0 0.0 0.00 0.03 0.03 96 1029.3
20260509223202 6 294 0.0 0.0 0.00 0.03 0.03 96 1029.3
20260509222926 6 294 0.0 0.0 0.00 0.03 0.03 96 1029.3
20260509222424 6 294 0.0 0.0 0.00 0.03 0.03 96 1029.2
20260509221702 6 294 0.0 0.0 0.00 0.03 0.03 97 1029.1
20260509221202 6 38 0.0 0.0 0.00 0.03 0.03 97 1029.0
20260509220702 5 38 0.0 0.0 0.00 0.03 0.03 97 1029.1
20260509220157 5 38 0.0 0.0 0.00 0.03 0.03 96 1029.0
20260509215909 5 38 0.0 0.0 0.00 0.03 0.03 96 1028.9
20260509215143 4 38 0.0 0.0 0.00 0.03 0.03 96 1028.9
20260509214904 3 38 0.0 0.0 0.00 0.03 0.03 96 1028.9
20260509214132 3 38 0.0 0.0 0.00 0.03 0.03 96 1028.7
20260509213627 3 38 0.0 0.0 0.00 0.03 0.03 96 1028.8
20260509213120 3 38 0.0 0.0 0.00 0.03 0.03 96 1028.7
20260509213053 3 38 0.0 0.0 0.00 0.03 0.03 96 1028.6
20260509212110 3 38 0.0 0.0 0.00 0.03 0.03 96 1028.5
20260509211609 3 38 0.0 0.0 0.00 0.03 0.03 96 1028.4
20260509211110 3 38 0.0 0.0 0.00 0.03 0.03 96 1028.4
20260509210610 3 38 0.0 0.0 0.00 0.03 0.03 96 1028.2
20260509210109 3 38 0.0 0.0 0.00 0.03 0.03 96 1028.2
20260509205608 3 38 0.0 0.0 0.00 0.03 0.03 96 1028.1
20260509205108 3 38 0.0 0.0 0.00 0.03 0.03 96 1028.0
20260509204610 3 38 0.0 0.0 0.00 0.03 0.03 96 1028.0
20260509204106 3 38 0.0 0.0 0.00 0.03 0.03 95 1027.9
20260509203607 3 38 0.0 0.0 0.00 0.03 0.03 95 1027.8
20260509203106 3 38 0.0 0.0 0.00 0.03 0.03 95 1027.8
20260509202609 3 38 0.0 0.0 0.00 0.03 0.03 95 1027.7
20260509202104 3 38 0.0 0.0 0.00 0.03 0.03 95 1027.6
20260509201823 3 38 0.0 0.0 0.00 0.03 0.03 95 1027.6
20260509201104 3 38 0.0 0.0 0.00 0.03 0.03 95 1027.6
20260509200558 3 38 0.0 0.0 0.00 0.03 0.03 95 1027.6
20260509200313 3 38 0.0 0.0 0.00 0.03 0.03 95 1027.5
20260509195548 3 38 0.0 0.0 0.00 0.03 0.03 95 1027.4
20260509195038 3 38 0.0 0.0 0.00 0.03 0.03 96 1027.4
20260509194533 3 38 0.0 0.0 0.00 0.03 0.03 95 1027.3
20260509194028 3 38 0.0 0.0 0.00 0.03 0.03 95 1027.3
20260509193745 3 38 0.0 0.0 0.00 0.03 0.03 96 1027.2
20260509193015 3 38 0.0 0.0 0.00 0.03 0.03 96 1027.2
20260509192509 3 38 0.0 0.0 0.00 0.03 0.03 95 1027.2
20260509192003 3 38 0.0 0.0 0.00 0.03 0.03 95 1027.1
20260509191457 3 38 0.0 0.0 0.00 0.03 0.03 95 1027.0
20260509190954 3 38 0.0 0.0 0.00 0.03 0.03 95 1027.0
20260509190446 3 38 0.0 0.0 0.00 0.03 0.03 95 1027.0
20260509185938 3 38 0.0 0.0 0.00 0.03 0.03 95 1026.9
20260509185658 3 38 0.0 0.0 0.03 0.03 0.03 95 1026.8
20260509184928 3 38 0.0 0.0 0.03 0.03 0.03 95 1026.8
20260509184642 3 38 0.0 0.0 0.03 0.03 0.03 95 1026.6
20260509183917 3 38 0.0 0.0 0.03 0.03 0.03 95 1026.6
20260509183409 3 38 0.0 0.0 0.03 0.03 0.03 95 1026.5
20260509183129 3 38 0.0 0.0 0.03 0.03 0.03 95 1026.5
20260509182357 3 38 0.0 0.0 0.03 0.03 0.03 95 1026.5
20260509181853 3 38 0.0 0.0 0.03 0.03 0.03 95 1026.5
20260509181346 3 38 0.0 0.0 0.03 0.03 0.03 95 1026.3
20260509180839 3 38 0.0 0.0 0.03 0.03 0.03 95 1026.3
20260509180333 3 38 0.0 0.0 0.03 0.03 0.03 95 1026.3
20260509175829 4 38 0.0 0.0 0.00 0.00 0.03 95 1026.3
20260509175809 3 38 0.0 0.0 0.00 0.00 0.00 95 1026.3
20260509175049 4 38 0.0 0.0 0.00 0.00 0.00 95 1026.3
20260509174308 4 38 0.0 0.0 0.00 0.00 0.00 95 1026.3
20260509174253 4 38 0.0 0.0 0.00 0.00 0.00 95 1026.2
20260509173257 4 38 0.0 0.0 0.00 0.00 0.00 95 1026.3
20260509172751 4 38 0.0 0.0 0.00 0.00 0.00 95 1026.2
20260509172246 4 38 0.0 0.0 0.00 0.00 0.00 95 1026.2
20260509171746 4 38 0.0 0.0 0.00 0.00 0.00 95 1026.2
20260509171233 4 38 0.0 0.0 0.00 0.00 0.00 95 1026.2
20260509170728 4 38 0.0 0.0 0.00 0.00 0.00 95 1026.2
20260509170222 4 38 0.0 0.0 0.00 0.00 0.00 95 1026.2
20260509165718 4 38 0.0 0.0 0.00 0.00 0.00 95 1026.2
20260509165425 4 38 0.0 0.0 0.00 0.00 0.00 95 1026.1
20260509164703 4 38 0.0 0.0 0.00 0.00 0.00 95 1026.1
20260509164417 5 38 0.0 0.0 0.00 0.00 0.00 95 1026.2
20260509163647 5 38 0.0 0.0 0.00 0.00 0.00 95 1026.2
20260509163142 5 38 0.0 0.0 0.00 0.00 0.00 95 1026.2
20260509162635 5 38 0.0 0.0 0.00 0.00 0.00 95 1026.2
20260509162129 5 38 0.0 0.0 0.00 0.00 0.00 95 1026.1
20260509161623 5 38 0.0 0.0 0.00 0.00 0.00 95 1026.2
20260509161119 5 38 0.0 0.0 0.00 0.00 0.00 95 1026.2
20260509160613 5 38 0.0 0.0 0.00 0.00 0.00 95 1026.2
20260509160105 5 38 0.0 0.0 0.00 0.00 0.00 95 1026.2
20260509155559 5 38 0.0 0.0 0.00 0.00 0.00 95 1026.2
20260509155053 5 38 0.0 0.0 0.00 0.00 0.00 95 1026.2
20260509154811 5 38 0.0 0.0 0.00 0.00 0.00 95 1026.1
20260509154041 5 38 0.0 0.0 0.00 0.00 0.00 94 1026.2
20260509153536 5 38 0.0 0.0 0.00 0.00 0.00 94 1026.2
20260509153028 5 38 0.0 0.0 0.00 0.00 0.00 95 1026.3
20260509152753 5 38 0.0 0.0 0.00 0.00 0.00 95 1026.3
20260509152017 5 38 0.0 0.0 0.00 0.00 0.00 95 1026.3
20260509151517 5 38 0.0 0.0 0.00 0.00 0.00 95 1026.3
20260509151017 5 38 0.0 0.0 0.00 0.00 0.00 95 1026.3
20260509150515 5 38 0.0 0.0 0.00 0.00 0.00 95 1026.3
20260509150011 6 38 0.0 0.0 0.00 0.00 0.00 95 1026.3
20260509145511 6 38 0.0 0.0 0.00 0.00 0.00 95 1026.3
20260509145010 6 38 0.0 0.0 0.00 0.00 0.00 94 1026.3
20260509144508 6 38 0.0 0.0 0.00 0.00 0.00 94 1026.3
20260509144008 6 38 0.0 0.0 0.00 0.00 0.00 95 1026.3
20260509143725 6 38 0.0 0.0 0.00 0.00 0.00 94 1026.3
20260509143006 6 38 0.0 0.0 0.00 0.00 0.00 94 1026.3